EW9037 Weather Reports


time (UTC)temp
C
wind
direction
speed
KPH
gust
KPH
rain 1hr
cm
rain 24hr
cm
rain mn
cm
humidity
%
barometer
mb
20180620222629 26 213 0.0 1.6 0.00 0.51 0.51 87 1009.5
20180620221128 26 160 0.0 1.6 0.00 0.51 0.51 88 1009.9
20180620215628 26 226 0.0 6.4 0.00 0.51 0.51 87 1009.9
20180620214124 25 271 0.0 4.8 0.41 0.51 0.51 89 1010.1
20180620212628 24 266 0.0 1.6 0.51 0.51 0.51 90 1009.9
20180620211124 23 269 0.0 0.0 0.51 0.51 0.51 90 1010.2
20180620205623 23 73 0.0 8.0 0.51 0.51 0.51 89 1010.5
20180620204122 26 314 6.4 29.0 0.05 0.05 0.05 76 1010.8
20180620202627 30 287 9.7 24.1 0.00 0.00 0.00 66 1010.6
20180620201123 30 233 8.0 19.3 0.00 0.00 0.00 66 1010.1
20180620195625 30 262 6.4 20.9 0.00 0.00 0.00 67 1010.2
20180620194119 31 258 9.7 17.7 0.00 0.00 0.00 63 1010.1
20180620192623 31 250 4.8 19.3 0.00 0.00 0.00 65 1009.9
20180620191117 31 257 9.7 19.3 0.00 0.00 0.00 64 1010.1
20180620185616 31 222 12.9 20.9 0.00 0.00 0.00 66 1010.2
20180620184114 31 263 9.7 22.5 0.00 0.00 0.00 65 1010.4
20180620182612 31 226 12.9 24.1 0.00 0.00 0.00 63 1010.7
20180620181115 31 274 12.9 19.3 0.00 0.00 0.00 64 1011.0
20180620175609 30 242 8.0 19.3 0.00 0.00 0.00 66 1011.1
20180620174108 31 212 8.0 20.9 0.00 0.00 0.00 66 1011.2
20180620172608 31 245 8.0 16.1 0.00 0.00 0.00 66 1011.3
20180620171102 30 274 8.0 20.9 0.00 0.00 0.00 65 1011.4
20180620165602 29 258 4.8 17.7 0.00 0.00 0.00 69 1011.5
20180620164059 29 276 8.0 17.7 0.00 0.00 0.00 69 1011.7
20180620162555 30 284 9.7 19.3 0.00 0.00 0.00 69 1011.8
20180620161057 29 219 3.2 11.3 0.00 0.00 0.00 71 1011.9
20180620155551 29 264 4.8 12.9 0.00 0.00 0.00 71 1012.0
20180620154051 28 274 9.7 17.7 0.00 0.00 0.00 70 1011.9
20180620152549 28 290 6.4 12.9 0.00 0.00 0.00 70 1011.8
20180620151048 28 280 8.0 14.5 0.00 0.00 0.00 72 1011.9
20180620145546 28 250 11.3 19.3 0.00 0.00 0.00 72 1012.0
20180620144044 28 276 4.8 14.5 0.00 0.00 0.00 74 1012.0
20180620142542 27 297 4.8 12.9 0.00 0.00 0.00 74 1012.1
20180620141042 27 264 4.8 12.9 0.00 0.00 0.00 76 1012.1
20180620135539 27 284 3.2 16.1 0.00 0.00 0.00 76 1012.3
20180620134035 26 253 4.8 11.3 0.00 0.00 0.00 78 1012.3
20180620132534 26 276 6.4 12.9 0.00 0.00 0.00 77 1012.3
20180620131033 26 221 3.2 12.9 0.00 0.00 0.00 77 1012.3
20180620125529 26 245 0.0 8.0 0.00 0.00 0.00 80 1012.3
20180620124027 25 205 0.0 6.4 0.00 0.00 0.00 81 1012.3
20180620122524 25 218 1.6 12.9 0.00 0.00 0.00 84 1012.3
20180620121021 24 233 4.8 11.3 0.00 0.00 0.00 84 1012.3
20180620115519 23 207 0.0 4.8 0.00 0.00 0.00 86 1012.4
20180620114022 23 231 0.0 1.6 0.00 0.00 0.00 87 1012.4
20180620112518 23 217 0.0 8.0 0.00 0.00 0.00 88 1012.4
20180620111017 22 214 0.0 4.8 0.00 0.00 0.00 89 1012.4
20180620105517 22 228 0.0 1.6 0.00 0.00 0.00 89 1012.3
20180620104015 22 235 0.0 0.0 0.00 0.00 0.00 89 1012.3
20180620102516 22 259 0.0 1.6 0.00 0.00 0.00 89 1012.2
20180620101018 22 252 0.0 0.0 0.00 0.00 0.00 89 1012.1
20180620095513 22 263 0.0 0.0 0.00 0.00 0.00 89 1012.0
20180620094014 22 250 0.0 1.6 0.00 0.00 0.00 89 1012.0
20180620092513 22 222 0.0 6.4 0.00 0.00 0.00 89 1012.1
20180620091013 22 239 0.0 1.6 0.00 0.00 0.00 88 1012.0
20180620085513 22 237 0.0 1.6 0.00 0.00 0.00 88 1011.9
20180620084010 22 229 0.0 1.6 0.00 0.00 0.00 89 1011.7
20180620082510 22 221 0.0 1.6 0.00 0.00 0.00 89 1012.0
20180620081011 22 240 0.0 0.0 0.00 0.00 0.00 90 1012.0
20180620075508 22 238 0.0 1.6 0.00 0.00 0.00 90 1011.8
20180620074006 22 154 0.0 0.0 0.00 0.00 0.00 90 1011.8
20180620072506 23 156 0.0 0.0 0.00 0.00 0.00 90 1011.7
20180620071003 23 148 0.0 0.0 0.00 0.00 0.00 89 1011.8
20180620065500 23 195 0.0 0.0 0.00 0.00 0.00 89 1012.0
20180620064004 23 134 0.0 1.6 0.00 0.00 0.00 90 1012.1
20180620062456 23 142 0.0 0.0 0.00 0.00 0.00 90 1012.5
20180620060959 23 224 0.0 0.0 0.00 0.00 0.00 89 1012.6
20180620055454 23 224 0.0 0.0 0.00 0.00 0.00 89 1012.6
20180620053953 23 208 0.0 0.0 0.00 0.00 0.00 88 1012.8
20180620052454 23 207 0.0 0.0 0.00 0.00 0.00 88 1012.8
20180620050947 24 233 0.0 4.8 0.00 0.00 0.00 87 1012.8
20180620045448 24 205 0.0 1.6 0.00 0.00 0.00 87 1012.8
20180620043944 24 205 0.0 4.8 0.00 0.00 0.00 87 1012.9
20180620042440 23 205 0.0 3.2 0.00 0.00 0.00 88 1012.9
20180620040940 24 235 0.0 0.0 0.00 0.00 0.00 88 1013.0
20180620035434 24 235 0.0 0.0 0.00 0.00 0.00 88 1013.0
20180620033935 24 235 0.0 0.0 0.00 0.00 0.00 88 1013.2
20180620032434 25 235 0.0 0.0 0.00 0.00 0.00 86 1013.1
20180620030937 25 235 0.0 0.0 0.00 0.00 0.00 84 1013.1
20180620025434 25 210 0.0 4.8 0.00 0.00 0.00 83 1012.9